Seretse Khama, Botswana

8:37 AM CAT on November 18, 2017 (GMT +0200)
Seretse Khama

Weather History for FBSK - September, 2013

Change the Weather History Date:

Sunday, September 22, 2013

  Actual Average Record
Temperature  
Mean Temperature 60 °F -  
Max Temperature 66 °F 84 °F 96 °F (2005)
Min Temperature 55 °F 58 °F 33 °F (2014)
Degree Days  
Heating Degree Days 4    
Growing Degree Days 10 (Base 50)    
Moisture  
Dew Point 35 °F    
Average Humidity 42    
Maximum Humidity 59    
Minimum Humidity 13    
Precipitation  
Precipitation 0.00 in - - ()
Sea Level Pressure  
Sea Level Pressure 30.23 in    
Wind  
Wind Speed 8 mph ()    
Max Wind Speed 21 mph    
Max Gust Speed 26 mph    
Visibility 6.2 miles    
Events      
Averages and records for this station are not official NWS values.
T = Trace of Precipitation, MM = Missing Value Source: Averaged Metar Reports

Daily Weather History Graph

Daily Weather History Graph

Search for Another Location

Airport or City:

Trip Planner

Search our weather history database for the weather conditions in past years. The results will help you decide how hot, cold, wet, or windy it might be!

Date:

Astronomy

Sep. 22, 2013 Rise Set
Actual Time 6:05 AM CAT 6:12 PM CAT
Civil Twilight 5:43 AM CAT 6:35 PM CAT
Nautical Twilight 5:16 AM CAT 7:01 PM CAT
Astronomical Twilight 4:50 AM CAT 7:28 PM CAT
Moon 9:11 PM CAT (9/22) 7:52 AM CAT (9/22)
Length of Visible Light 12h 51m
Length of Day
12h 06m
Waning Gibbous, 90% of the Moon is Illuminated
Sep 22
Waning Gibbous
Sep 27
Last Quarter
Oct 5
New
Oct 12
First Quarter
Oct 19
Full

Hourly Weather History & Observations

Time (CAT) Temp. Dew Point Humidity Pressure Visibility Wind Dir Wind Speed Gust Speed Precip Events Conditions
12:00 AM 60.8 °F 8.6 °F 13% 30.21 in - South 9.2 mph - N/A   Clear
1:00 AM 57.2 °F 6.8 °F 13% 30.21 in - South 4.6 mph - N/A   Clear
2:00 AM 57.2 °F 6.8 °F 13% 30.21 in - South 3.5 mph - N/A   Clear
3:00 AM 55.4 °F 6.8 °F 14% 30.18 in - South 5.8 mph - N/A   Clear
4:00 AM 57.2 °F 6.8 °F 13% 30.18 in - South 4.6 mph - N/A   Clear
5:00 AM 57.2 °F 6.8 °F 13% 30.21 in - South 4.6 mph - N/A   Clear
6:00 AM 57.2 °F 8.6 °F 14% 30.24 in 6.2 mi Variable 2.3 mph - N/A   Mostly Cloudy
7:00 AM 59.0 °F 12.2 °F 16% 30.24 in 6.2 mi East 6.9 mph - N/A   Mostly Cloudy
8:00 AM 60.8 °F 39.2 °F 45% 29.98 in 6.2 mi East 8.1 mph - N/A   Mostly Cloudy
9:00 AM 64.4 °F 48.2 °F 56% 30.27 in 6.2 mi ENE 15.0 mph - N/A   Mostly Cloudy
10:00 AM 64.4 °F 50.0 °F 59% 30.27 in 6.2 mi ENE 20.7 mph - N/A   Overcast
11:00 AM 66.2 °F 50.0 °F 56% 30.30 in 6.2 mi NE 15.0 mph 26.5 mph N/A   Overcast
12:00 PM 66.2 °F 50.0 °F 56% 30.27 in 6.2 mi ENE 17.3 mph - N/A   Overcast
1:00 PM 64.4 °F 50.0 °F 59% 30.27 in 6.2 mi ENE 13.8 mph - N/A   Overcast
2:00 PM 66.2 °F 50.0 °F 56% 30.24 in 6.2 mi East 13.8 mph - N/A   Overcast
3:00 PM 66.2 °F 50.0 °F 56% 30.21 in 6.2 mi East 16.1 mph - N/A   Overcast
4:00 PM 66.2 °F 50.0 °F 56% 30.21 in 6.2 mi ENE 16.1 mph - N/A   Overcast
5:00 PM 66.2 °F 50.0 °F 56% 30.24 in 6.2 mi East 12.7 mph - N/A   Overcast
6:00 PM 66.2 °F 48.2 °F 52% 30.24 in 6.2 mi East 13.8 mph - N/A   Mostly Cloudy
7:00 PM 66.2 °F 48.2 °F 52% 30.27 in 6.2 mi East 13.8 mph - N/A   Mostly Cloudy
8:00 PM 64.4 °F 48.2 °F 56% 30.27 in 6.2 mi ENE 13.8 mph - N/A   Mostly Cloudy
9:00 PM 64.4 °F 50.0 °F 59% 30.30 in 6.2 mi Variable 5.8 mph - N/A   Mostly Cloudy
10:00 PM 62.6 °F 48.2 °F 59% 30.27 in - ENE 12.7 mph - N/A   Clear
11:00 PM 62.6 °F 48.2 °F 59% 30.30 in 6.2 mi ENE 9.2 mph - N/A   Mostly Cloudy